Weather Roundup
Issued by NWS

Home | Current Version | Previous Version | Graphics & Text | Print | Product List | Glossary Off
Versions: 1 2 3 4 5 6 7 8 9 10 11 12 13 14 15 16 17 18 19 20 21 22 23 24 25 26 27 28 29 30 31 32 33 34 35 36 37 38 39 40 41 42 43 44 45 46 47 48 49 50

585
NZUS93 KARX 081410
HRRWXR

CURRENT HOURLY OBSERVATIONS ACROSS
MUCH OF THE UPPER MISSISSIPPI VALLEY
NATIONAL WEATHER SERVICE LA CROSSE WI
800 AM CST THU DEC 08 2016


...SOUTHEAST MINNESOTA...


CITY           SKY/WX    TMP DP  RH WIND       PRES   REMARKS
ROCHESTER      CLOUDY    15  11  83 W18       30.24R WCI  -2
ROCHESTER/MAYO CLOUDY    17  13  87 W10G18    30.25R WCI   4
WINONA           N/A     19  14  79 W10       30.26R WCI   8
AUSTIN         FLURRIES  16  10  79 NW14G22   30.28R WCI   1
ALBERT LEA     LGT SNOW  18  16  93 NW12G18   30.29R WCI   5
DODGE CENTER   FLURRIES  16  12  86 W17       30.25R WCI   0
PRESTON        LGT SNOW  15  11  84 NW17      30.25R WCI  -2
OWATONNA       PTCLDY    16  10  79 W14G20    30.29R WCI   1
FARIBAULT      PTCLDY    16  12  86 W14G21    30.29R WCI   1
$$

...ELSEWHERE IN MINNESOTA...


CITY           SKY/WX    TMP DP  RH WIND       PRES   REMARKS
MINNEAPOLIS    PTCLDY    18  12  77 NW13      30.28R WCI   5
INTNL FALLS    LGT SNOW  18  14  84 NW10      30.22R FOG     WCI   6
DULUTH         LGT SNOW  19  15  84 NW14      30.14R FOG     WCI   6
RED WING       CLOUDY    19  12  73 NW10G17   30.25R WCI   8
REDWOOD FALLS  LGT SNOW  14   8  77 NW17G24   30.39R WCI  -3
MANKATO        FLURRIES  15  11  83 NW21G29   30.32R WCI  -2
WORTHINGTON    CLEAR      8   4  83 W22       30.40R WCI -12
FAIRMONT       FLURRIES  14   9  80 NW26      30.36S WCI  -6
$$

...SOUTHWEST WISCONSIN...


CITY           SKY/WX    TMP DP  RH WIND       PRES   REMARKS
LA CROSSE      CLOUDY    20  13  74 W10       30.25R WCI   9
PRAIRIE DU CHI FLURRIES  17   9  72 W10       30.29R WCI   4
BOSCOBEL       CLOUDY    17   9  70 SW9       30.27R WCI   6
LONE ROCK      FLURRIES  17   9  70 W14       30.24R WCI   3
PLATTEVILLE    PTCLDY    13   9  82 W16G22    30.25S WCI  -3
FORT MC COY    FLURRIES  18  13  83 W8        30.21R WCI   7
CAMP DOUGLAS   FLURRIES  16  12  86 W14       30.17R WCI   1
MAUSTON-NEW LI FLURRIES  17  11  77 W9        30.18R WCI   6
VIROQUA        CLOUDY    15  11  85 W12       30.19R WCI   2
WIS DELLS      FLURRIES  15  10  79 W9        30.18R WCI   3
$$

...ELSEWHERE IN WISCONSIN...


CITY           SKY/WX    TMP DP  RH WIND       PRES   REMARKS
MILWAUKEE      MOCLDY    19   8  62 W17G28    30.16R WCI   4
MADISON        FLURRIES  15   8  73 W12G18    30.19R WCI   2
GREEN BAY      CLOUDY    20  14  77 W18       30.06R WCI   5
EAU CLAIRE     CLOUDY    19  15  84 W10       30.19R WCI   7
BLACK RVR FLS  LGT SNOW  17  12  79 W10       30.19R WCI   5
MEDFORD        CLOUDY    17  13  86 W9        30.07R WCI   5
WAUSAU         CLOUDY    16  13  88 W9        30.07R WCI   4
WIS RAPIDS     LGT SNOW  16  12  84 W12       30.15R FOG     WCI   3
MARSHFIELD     CLOUDY    15  11  83 W13       30.10R WCI   1
RICE LAKE      FLURRIES  21  17  84 W10       30.18R WCI  10
$$

...NORTHEAST IOWA...


CITY           SKY/WX    TMP DP  RH WIND       PRES   REMARKS
WATERLOO       CLOUDY    15   7  70 W16G23    30.34R WCI  -1
DUBUQUE        CLOUDY    11   6  81 W14G22    30.28R WCI  -5
DECORAH        CLOUDY    16  10  79 NW8G16    30.25R WCI   5
MASON CITY     FLURRIES  14   9  80 NW20      30.34R WCI  -3
CHARLES CITY   FLURRIES  14  10  85 NW17G25   30.32R WCI  -3
OELWEIN        FLURRIES  14  10  85 W16G24    30.31R WCI  -2
$$

...ELSEWHERE IN IOWA...


CITY           SKY/WX    TMP DP  RH WIND       PRES   REMARKS
DES MOINES     PTCLDY    13   4  67 NW23      30.46R WCI  -6
IOWA CITY      CLOUDY    14   6  70 W15G24    30.40R WCI  -1
FORT DODGE     CLEAR     10   1  67 W13G23    30.43R WCI  -5
MARSHALLTOWN   CLOUDY    13   7  77 W23       30.39R WCI  -6
CEDAR RAPIDS   MOCLDY    12   8  84 W20G26    30.35R WCI  -6
$$

...NORTHERN ILLINOIS...


CITY           SKY/WX    TMP DP  RH WIND       PRES   REMARKS
CHICAGO-OHARE  CLOUDY    17   8  67 W18G28    30.22R WCI   1
CHICAGO-MIDWAY FLURRIES  18   8  65 W20G29    30.24R WCI   2
MOLINE         CLOUDY    16   6  65 W16G30    30.37R WCI   1
ROCKFORD       FLURRIES  16   8  71 W21       30.28R WCI  -1
PEORIA         CLOUDY    18  10  71 NW17G24   30.37R WCI   3
$$

NOTE: "FAIR" INDICATES FEW OR NO CLOUDS BELOW 12,000 FEET WITH NO
SIGNIFICANT WEATHER AND/OR OBSTRUCTIONS TO VISIBILITY. WIND
SPEEDS ARE IN MILES-PER-HOUR.




USA.gov is the U.S. government's official web portal to all federal, state and local government web resources and services.